Location: East Fork Observatory
(32.9757°N, 94.4485°W)
Time: 16:49:19
(UTC-05:00)

Envisat - Visible Passes

Search period start: 18 March 2019 00:00
Search period end: 28 March 2019 00:00
Orbit: 764 x 766 km, 98.2° (Epoch: 18 March)

Date Brightness Start Highest point End Pass type
(mag) Time Alt. Az. Time Alt. Az. Time Alt. Az.
18 Mar 5.7 21:06:28 10° SW 21:10:02 19° W 21:13:39 10° NW visible
19 Mar 4.1 20:28:16 10° S 20:33:07 46° W 20:38:00 10° NNW visible
20 Mar 3.0 19:51:20 10° SSE 19:56:23 72° ENE 20:01:27 10° N visible
21 Mar 5.3 20:54:38 10° SSW 20:58:46 25° W 21:02:54 10° NW visible
22 Mar 3.6 20:16:53 10° S 20:21:53 61° W 20:26:55 10° NNW visible
23 Mar 6.0 21:22:09 10° WSW 21:24:29 13° W 21:26:49 10° WNW visible
24 Mar 4.8 20:42:59 10° SSW 20:47:29 32° W 20:52:01 10° NW visible
25 Mar 3.2 20:05:36 10° S 20:10:40 80° WSW 20:15:46 10° NNW visible
26 Mar 5.8 21:09:53 10° SW 21:13:10 17° W 21:16:29 10° NW visible
27 Mar 4.3 20:31:27 10° S 20:36:14 42° W 20:41:02 10° NNW visible
